Kingsville, TX

6:34 AM CST on December 11, 2016 (GMT -0600)
Kingsville Naval Air Station

Weather History for KNQI - October, 2011

Change the Weather History Date:

Sunday, October 16, 2011

  Actual Average Record
Temperature  
Mean Temperature 79 °F -  
Max Temperature 91 °F 81 °F 93 °F (2006)
Min Temperature 68 °F 62 °F 50 °F (2001)
Cooling Degree Days 14    
Growing Degree Days 29 (Base 50)    
Moisture  
Dew Point 62 °F    
Average Humidity 69    
Maximum Humidity 100    
Minimum Humidity 22    
Precipitation  
Precipitation 0.00 in - - ()
Sea Level Pressure  
Sea Level Pressure 30.00 in    
Wind  
Wind Speed 4 mph (ENE)    
Max Wind Speed 12 mph    
Max Gust Speed 18 mph    
Visibility 10 miles    
Events      
Averages and records for this station are not official NWS values.
T = Trace of Precipitation, MM = Missing Value Source: NWS Daily Summary

Daily Weather History Graph

Daily Weather History Graph

Search for Another Location

Airport or City:

Trip Planner

Search our weather history database for the weather conditions in past years. The results will help you decide how hot, cold, wet, or windy it might be!

Date:

Astronomy

Oct. 16, 2011 Rise Set
Actual Time 7:31 AM CDT 7:01 PM CDT
Civil Twilight 7:08 AM CDT 7:25 PM CDT
Nautical Twilight 6:40 AM CDT 7:52 PM CDT
Astronomical Twilight 6:13 AM CDT 8:19 PM CDT
Moon 10:10 PM CDT (10/16) 11:27 AM CDT (10/16)
Length of Visible Light 12h 16m
Length of Day
11h 29m
Waning Gibbous, 82% of the Moon is Illuminated
Oct 16
Waning Gibbous
Oct 19
Last Quarter
Oct 26
New
Nov 2
First Quarter
Nov 10
Full

Hourly Weather History & Observations

Time (CDT) Temp. Heat Index Dew Point Humidity Pressure Visibility Wind Dir Wind Speed Gust Speed Precip Events Conditions
12:56 AM 71.1 °F - 68.0 °F 90% 30.04 in 10.0 mi NE 4.6 mph - N/A   Clear
1:56 AM 70.0 °F - 68.0 °F 93% 30.03 in 10.0 mi NNE 3.5 mph - N/A   Scattered Clouds
2:56 AM 70.0 °F - 68.0 °F 93% 30.02 in 10.0 mi NE 4.6 mph - N/A   Clear
3:56 AM 70.0 °F - 68.0 °F 93% 30.01 in 10.0 mi NE 3.5 mph - N/A   Scattered Clouds
4:42 AM 69.8 °F - 68.0 °F 94% 30.02 in 10.0 mi Calm Calm - N/A   Mostly Cloudy
4:56 AM 70.0 °F - 68.0 °F 93% 30.01 in 10.0 mi Calm Calm - N/A   Mostly Cloudy
5:33 AM 69.8 °F - 66.2 °F 88% 30.02 in 10.0 mi NE 3.5 mph - N/A   Scattered Clouds
5:56 AM 69.1 °F - 68.0 °F 96% 30.01 in 10.0 mi NE 3.5 mph - N/A   Partly Cloudy
6:56 AM 68.0 °F - 68.0 °F 100% 30.02 in 10.0 mi NE 4.6 mph - N/A   Partly Cloudy
7:56 AM 69.1 °F - 68.0 °F 96% 30.03 in 9.0 mi ENE 4.6 mph - N/A   Clear
8:56 AM 75.0 °F - 72.0 °F 90% 30.05 in 10.0 mi NE 3.5 mph - N/A   Clear
9:56 AM 81.0 °F 84.9 °F 71.1 °F 72% 30.06 in 10.0 mi NE 4.6 mph - N/A   Clear
10:56 AM 84.0 °F 83.3 °F 57.0 °F 40% 30.06 in 10.0 mi Variable 4.6 mph - N/A   Scattered Clouds
11:56 AM 86.0 °F - 51.1 °F 30% 30.05 in 10.0 mi Variable 3.5 mph - N/A   Mostly Cloudy
12:56 PM 84.0 °F - 52.0 °F 33% 30.03 in 10.0 mi Variable 4.6 mph - N/A   Scattered Clouds
1:56 PM 89.1 °F - 46.0 °F 22% 30.00 in 10.0 mi Calm Calm - N/A   Mostly Cloudy
2:56 PM 88.0 °F - 48.9 °F 26% 29.96 in 10.0 mi ESE 8.1 mph - N/A   Scattered Clouds
3:56 PM 90.0 °F - 51.1 °F 26% 29.94 in 10.0 mi ESE 11.5 mph 18.4 mph N/A   Scattered Clouds
4:56 PM 88.0 °F - 51.1 °F 28% 29.93 in 10.0 mi ESE 10.4 mph - N/A   Scattered Clouds
5:56 PM 84.9 °F 83.2 °F 53.1 °F 33% 29.94 in 10.0 mi ESE 11.5 mph - N/A   Partly Cloudy
6:56 PM 80.1 °F 80.0 °F 54.0 °F 40% 29.94 in 10.0 mi ESE 11.5 mph - N/A   Partly Cloudy
7:56 PM 75.9 °F - 57.0 °F 52% 29.95 in 10.0 mi ESE 6.9 mph - N/A   Clear
8:56 PM 73.9 °F - 63.7 °F 70% 29.96 in 10.0 mi East 5.8 mph - N/A   Clear
9:56 PM 72.0 °F - 70.5 °F 95% 29.96 in 10.0 mi ESE 4.6 mph - N/A   Clear
10:56 PM 70.0 °F - 70.0 °F 100% 29.97 in 10.0 mi ESE 4.6 mph - N/A   Clear
11:56 PM 69.1 °F - 66.9 °F 93% 29.97 in 10.0 mi Calm Calm - N/A   Clear